Location: Burla
(50.9568°N, 10.4983°E)
Time: 18:39:45
(UTC+00:00)

Cosmos 1140 Rocket - Pass Details

Date: 18 January 2026
Orbit: 739 x 763 km, 74.1° (Epoch: 18 February)

Event Time Altitude Azimuth Distance (km) Brightness Sun altitude
Rises 06:11:22 0° 236° (WSW) 3,170 6.4 -9.3°
Reaches altitude 10° 06:13:59 10° 248° (WSW) 2,253 5.5 -9.0°
Maximum altitude 06:18:25 29° 308° (NW) 1,345 4.3 -8.3°
Drops below altitude 10° 06:22:54 10° 9° (N) 2,276 5.8 -7.7°
Sets 06:25:34 0° 20° (NNE) 3,208 6.7 -7.3°
